Mar del Plata, Argentina

12:51 PM America en Mayo 21, 2018 (GMT +0000)
Mar Del Plata International

Tiempo Historia de SAZM - Abril, 2018

Change the Weather History Date:

Lunes, Abril 16, 2018

  Actual Average Record
Temperature  
Temperatura media 66 ° F -  
Temperatura máxima 76 ° F 65 ° F 78 ° F (2009)
Temperatura mínima 56 ° F 46 ° F 37 ° F (2006)
Cooling Degree Days 1    
Growing Degree Days 16 (Base 50)    
Moisture  
Punto de rocío 61 ° F    
Average Humidity 86    
Maximum Humidity 100    
Minimum Humidity 58    
Precipitación  
Precipitación 0.00 pul 0.10 pul - ()
Presión al nivel del mar  
Presión al nivel del mar 30.20 pul    
Viento  
Velocidad del viento 10 mph ()    
Velocidad máxima del viento 18 mph    
Max Gust Speed -    
Visibilidad 6.1 Millas    
Eventos      
Averages and records for this station are not official NWS values.
T = Trace of Precipitation, MM = Missing Value Source: Averaged Metar Reports

Daily Weather History Graph

Daily Weather History Graph

Search for Another Location

Airport or City:

Astronomía

Apr. 16, 2018 Salida Puesta
Hora real 7:17 AM -03 6:21 PM -03
Crepúsculo civil 6:51 AM -03 6:48 PM -03
Crepúsculo náutico 6:20 AM -03 7:18 PM -03
Crepúsculo astronómico 5:50 AM -03 7:49 PM -03
Luna 7:38 AM -03 (4/16) 7:08 PM -03 (4/16)
Horas de luz 11h 56m
Horas de luz
11h 03m
Luna nueva, 0% of the Moon is Illuminated
Abr 16
Luna nueva
Abr 22
Cuarto creciente
Abr 29
Luna llena
May 7
Cuarto menguante
May 15
Nueva

Hourly Weather History & Observations

Hora (-03) Temp. Punto de rocío Humedad Presión Visibilidad Wind Dir Velocidad del viento Velocidad de ráfagas Precip Eventos Condiciones
12:00 AM 58 ° F 57 ° F 94% 30.33 pul 6 mi NNE 6.9 mph - -  
12:00 AM 57.2 ° F 57.2 ° F 100% 30.30 pul - NNE 6.9 mph - N/A   Despejado
1:00 AM 57.2 ° F 57.2 ° F 100% 30.30 pul - NNE 6.9 mph - N/A   Despejado
2:00 AM 57.2 ° F 57.2 ° F 100% 30.27 pul - NNE 6.9 mph - N/A   Despejado
3:00 AM 59 ° F 59 ° F 99% 30.28 pul 6 mi NNE 6.9 mph - -   Nubes dispersas
3:00 AM 59.0 ° F 59.0 ° F 100% 30.27 pul 6.2 mi NNE 6.9 mph - N/A   Parcialmente nublado
4:00 AM 59.0 ° F 59.0 ° F 100% 30.24 pul 6.2 mi Norte 8.1 mph - N/A   Nubes dispersas
5:00 AM 60.8 ° F 59.0 ° F 94% 30.24 pul 6.2 mi Norte 5.8 mph - N/A   Nubes dispersas
6:00 AM 61 ° F 60 ° F 97% 30.28 pul 6 mi Norte 8.1 mph - -   Muy nublado
6:00 AM 60.8 ° F 60.8 ° F 100% 30.27 pul 6.2 mi Norte 8.1 mph - N/A   Muy nublado
7:00 AM 59.0 ° F 59.0 ° F 100% 30.27 pul 6.2 mi Norte 5.8 mph - N/A   Muy nublado
8:00 AM 59.0 ° F 59.0 ° F 100% 30.27 pul 6.2 mi NNE 4.6 mph - N/A   Muy nublado
9:00 AM 62 ° F 61 ° F 94% 30.29 pul 6 mi NNE 11.5 mph - -   Muy nublado
9:00 AM 62.6 ° F 60.8 ° F 94% 30.27 pul 6.2 mi NNE 11.5 mph - N/A   Muy nublado
10:00 AM 64.4 ° F 62.6 ° F 94% 30.27 pul 6.2 mi Norte 13.8 mph - N/A   Muy nublado
11:00 AM 66.2 ° F 62.6 ° F 88% 30.24 pul 6.2 mi Norte 16.1 mph - N/A   Muy nublado
12:00 PM 69 ° F 62 ° F 74% 30.25 pul 6 mi Norte 17.3 mph - -   Nublado
12:00 PM 69.8 ° F 62.6 ° F 78% 30.24 pul 6.2 mi Norte 17.3 mph - N/A   Muy nublado
1:00 PM 71.6 ° F 62.6 ° F 73% 30.21 pul 6.2 mi Norte 18.4 mph - N/A   Nubes dispersas
2:00 PM 73.4 ° F 62.6 ° F 69% 30.15 pul 6.2 mi Norte 18.4 mph - N/A   Nubes dispersas
3:00 PM 74 ° F 62 ° F 58% 30.15 pul 6 mi Norte 18.4 mph - -   Nubes dispersas
3:00 PM 73.4 ° F 62.6 ° F 69% 30.12 pul 6.2 mi Norte 18.4 mph - N/A   Muy nublado
4:00 PM 75.2 ° F 62.6 ° F 65% 30.09 pul 6.2 mi Norte 18.4 mph - N/A   Muy nublado
5:00 PM 75.2 ° F 64.4 ° F 69% 30.09 pul 6.2 mi Norte 18.4 mph - N/A   Muy nublado
6:00 PM 71 ° F 63 ° F 70% 30.10 pul 6 mi NNE 17.3 mph - -   Nubes dispersas
6:00 PM 71.6 ° F 62.6 ° F 73% 30.09 pul - NNE 17.3 mph - N/A   Despejado
7:00 PM 68.0 ° F 62.6 ° F 83% 30.09 pul - NNE 16.1 mph - N/A   Despejado
8:00 PM 66.2 ° F 62.6 ° F 88% 30.09 pul - NNE 16.1 mph - N/A   Despejado
9:00 PM 65 ° F 61 ° F 84% 30.11 pul 6 mi NNE 11.5 mph - -   Despejado
9:00 PM 66.2 ° F 60.8 ° F 83% 30.09 pul - Norte 10.4 mph - N/A   Despejado
10:00 PM 64.4 ° F 60.8 ° F 88% 30.01 pul - Norte 11.5 mph - N/A   Despejado
11:00 PM 64.4 ° F 60.8 ° F 88% 30.09 pul - Norte 12.7 mph - N/A   Despejado